Regional Weather Roundup
Issued by NWS

Home | Current Version | Previous Version | Graphics & Text | Print | Product List | Glossary On
Versions: 1 2 3 4 5 6 7 8 9 10 11 12 13 14 15 16 17 18 19 20 21 22 23 24 25 26 27 28 29 30 31 32 33 34 35 36 37 38 39 40 41 42 43 44 45 46 47 48 49 50
000
ASUS44 KMEG 221900
RWRTN
TENNESSEE HOURLY STATE WEATHER ROUNDUP
NATIONAL WEATHER SERVICE MEMPHIS TN
100 PM CST WED FEB 22 2017

TNZ002-004-019-021-049-052-054-088>092-222000-
WEST TENNESSEE

CITY           SKY/WX    TMP DP  RH WIND       PRES   REMARKS
MEMPHIS INTL   MOSUNNY   73  58  59 CALM      29.83F
NWS MEMPHIS      N/A     71 N/A N/A MISG        N/A
JACKSON        PTSUNNY   68  58  70 E8        29.84F
UNION CITY     MOSUNNY   72  57  60 CALM      29.83F
PARIS          MOSUNNY   70  54  56 SE8       29.83F
$$

TNZ008-025-027-028-033-062-065-066-222000-
NORTH MIDDLE TENNESSEE

CITY           SKY/WX    TMP DP  RH WIND       PRES   REMARKS
NASHVILLE      CLOUDY    69  56  62 SE8       29.86F
CLARKSVILLE    MOSUNNY   70  56  61 MISG      29.83F
SMYRNA         CLOUDY    68  59  73 VRB5      29.87F
CROSSVILLE     PTSUNNY   59  54  83 SE7       29.90F
$$

TNZ061-075-076-078-094-096-097-222000-
SOUTH MIDDLE TENNESSEE

CITY           SKY/WX    TMP DP  RH WIND       PRES   REMARKS
TULLAHOMA      CLOUDY    64  55  72 SE9       29.88F
WINCHESTER     CLOUDY    64  57  77 SE13      29.87F
MCMINNVILLE    CLOUDY    66  57  72 VRB6      29.87F
COLUMBIA       CLOUDY    64  64 100 SE3       29.85F
SHELBYVILLE    CLOUDY    66  59  77 SE8       29.86F
$$

TNZ017-018-042-046-047-222000-
NORTHEAST TENNESSEE

CITY           SKY/WX    TMP DP  RH WIND       PRES   REMARKS
TRI CITIES     LGT RAIN  57  55  93 CALM      29.94F
$$

TNZ012-013-036-069-073-074-222000-
CENTRAL EAST TENNESSEE

CITY           SKY/WX    TMP DP  RH WIND       PRES   REMARKS
KNOXVILLE      CLOUDY    63  56  78 NE6       29.89F
OAK RIDGE      LGT RAIN  60  55  83 VRB3      29.92F
GATLINBURG     CLOUDY    57  55  94 N5        29.90F
$$

TNZ083-085-099-222000-
SOUTHEAST TENNESSEE

CITY           SKY/WX    TMP DP  RH WIND       PRES   REMARKS
CHATTANOOGA    CLOUDY    65  57  75 CALM      29.88F
$$

SKY/WX REPORTED AS FAIR MEANS FEW OR NO CLOUDS BELOW
12 THOUSAND FEET.




USA.gov is the U.S. government's official web portal to all federal, state and local government web resources and services.